GW3529 Weather Reports


time (UTC)temp
F
wind
direction
speed
knots
gust
knots
rain 1hr
in
rain 24hr
in
rain mn
in
humidity
%
barometer
mb
20260906211509 85 148 2.6 12.2 0.03 0.03 0.03 40 1004.2
20260906210008 87 5 0.9 8.7 0.00 0.00 0.00 34 1004.7
20260906204507 87 160 4.3 15.6 0.00 0.00 0.00 34 1004.2
20260906203006 89 167 11.3 19.1 0.00 0.00 0.00 32 1004.2
20260906201506 90 210 9.6 19.1 0.00 0.00 0.00 33 1004.1
20260906200006 88 171 8.7 24.3 0.00 0.00 0.00 34 1003.9
20260906194504 91 161 12.2 20.9 0.00 0.00 0.00 32 1004.0
20260906193100 91 187 9.6 15.6 0.00 0.00 0.00 31 1003.8
20260906191600 90 151 11.3 24.3 0.00 0.00 0.00 32 1004.0
20260906190103 91 184 10.4 15.6 0.00 0.00 0.00 32 1004.1
20260906184612 91 178 7.0 17.4 0.00 0.00 0.00 31 1004.3
20260906183050 91 199 10.4 16.5 0.00 0.00 0.00 31 1004.5
20260906181550 90 168 11.3 16.5 0.00 0.00 0.00 32 1004.7
20260906180043 90 164 8.7 14.8 0.00 0.00 0.00 32 1004.9
20260906174544 90 185 7.8 11.3 0.00 0.00 0.00 32 1005.2
20260906173039 89 184 9.6 14.8 0.00 0.00 0.00 33 1005.4
20260906171540 89 146 8.7 14.8 0.00 0.00 0.00 33 1005.6
20260906170034 87 207 8.7 16.5 0.00 0.00 0.00 34 1005.8
20260906164537 88 147 8.7 12.2 0.00 0.00 0.00 34 1006.0
20260906163031 87 159 5.2 9.6 0.00 0.00 0.00 35 1006.2
20260906161529 87 175 7.8 12.2 0.00 0.00 0.00 35 1006.2
20260906160024 85 205 7.0 11.3 0.00 0.00 0.00 38 1006.3
20260906154520 84 154 7.0 9.6 0.00 0.00 0.00 39 1006.3
20260906153023 82 160 6.1 10.4 0.00 0.00 0.00 42 1006.3
20260906151511 81 152 8.7 11.3 0.00 0.00 0.00 43 1006.5
20260906150007 80 136 4.3 10.4 0.00 0.00 0.00 46 1006.6
20260906144504 80 170 4.3 6.1 0.00 0.00 0.00 47 1006.7
20260906143101 79 170 4.3 7.0 0.00 0.00 0.00 48 1006.8
20260906141606 77 166 3.5 5.2 0.00 0.00 0.00 50 1006.8
20260906140057 76 166 4.3 7.0 0.00 0.00 0.00 53 1006.7
20260906134605 74 170 4.3 7.8 0.00 0.00 0.00 55 1006.8
20260906133056 71 160 4.3 8.7 0.00 0.00 0.00 60 1006.8
20260906131553 69 204 2.6 4.3 0.00 0.00 0.00 64 1006.8
20260906130108 68 204 0.9 4.3 0.00 0.00 0.00 65 1006.6
20260906124549 69 201 5.2 7.8 0.00 0.00 0.00 63 1006.4
20260906123029 70 190 3.5 6.1 0.00 0.00 0.00 60 1006.3
20260906121518 70 194 0.0 2.6 0.00 0.00 0.00 62 1006.1
20260906120017 68 193 0.0 2.6 0.00 0.00 0.00 65 1006.0
20260906114516 69 193 0.9 2.6 0.00 0.00 0.00 61 1005.9
20260906113012 70 192 0.0 2.6 0.00 0.00 0.00 61 1005.9
20260906111511 71 191 0.0 3.5 0.00 0.00 0.00 59 1005.9
20260906110011 70 192 2.6 4.3 0.00 0.00 0.00 61 1006.0
20260906104511 72 195 1.7 5.2 0.00 0.00 0.00 56 1005.9
20260906103022 77 195 0.0 4.3 0.00 0.00 0.00 49 1005.9
20260906101508 77 194 1.7 6.1 0.00 0.00 0.00 49 1005.9
20260906100021 78 194 7.0 13.9 0.00 0.00 0.00 47 1005.8
20260906094505 78 157 8.7 15.6 0.00 0.00 0.00 48 1005.6
20260906093004 78 156 9.6 16.5 0.00 0.00 0.00 48 1005.6
20260906091503 78 148 9.6 15.6 0.00 0.00 0.00 47 1005.3
20260906090002 78 164 10.4 13.9 0.00 0.00 0.00 49 1005.4
20260906084558 76 156 7.8 13.0 0.00 0.00 0.00 53 1005.3
20260906083059 71 198 3.5 5.2 0.00 0.00 0.00 61 1005.3
20260906081554 73 187 3.5 6.1 0.00 0.00 0.00 57 1005.7
20260906080053 75 167 5.2 7.0 0.00 0.00 0.00 55 1005.7
20260906074553 76 167 5.2 10.4 0.00 0.00 0.00 54 1005.7
20260906073051 76 128 7.8 11.3 0.00 0.00 0.00 55 1005.8
20260906071550 76 167 4.3 9.6 0.00 0.00 0.00 55 1005.8
20260906070047 72 189 2.6 6.1 0.00 0.00 0.00 62 1005.5
20260906064545 73 189 2.6 5.2 0.00 0.00 0.00 60 1005.6
20260906063044 72 185 0.0 0.0 0.00 0.00 0.00 61 1005.5
20260906061542 72 184 0.0 0.0 0.00 0.00 0.00 58 1005.6
20260906060038 72 184 0.0 0.0 0.00 0.00 0.00 57 1005.9
20260906054539 71 184 0.0 3.5 0.00 0.00 0.00 57 1006.1
20260906053037 71 184 0.0 1.7 0.00 0.00 0.00 56 1006.2
20260906051533 73 184 0.0 0.0 0.00 0.00 0.00 53 1006.5
20260906050034 73 184 2.6 8.7 0.00 0.00 0.00 53 1006.5
20260906044531 73 136 1.7 6.1 0.00 0.00 0.00 53 1006.4
20260906043030 75 228 2.6 4.3 0.00 0.00 0.00 51 1006.0
20260906041529 77 185 0.9 2.6 0.00 0.00 0.00 47 1006.0
20260906040028 76 185 0.0 1.7 0.00 0.00 0.00 48 1006.2
20260906034528 76 185 0.0 0.0 0.00 0.00 0.00 47 1006.3
20260906033026 78 185 0.0 0.9 0.00 0.00 0.00 45 1006.4
20260906031526 81 185 1.7 6.1 0.00 0.00 0.00 41 1006.3
20260906030025 81 182 2.6 7.8 0.00 0.00 0.00 41 1006.0
20260906024524 81 178 7.0 8.7 0.00 0.00 0.00 41 1005.9
20260906023025 79 188 1.7 4.3 0.00 0.00 0.00 44 1005.5
20260906021535 80 182 3.5 6.1 0.00 0.00 0.00 43 1005.4
20260906020022 81 173 6.1 7.8 0.00 0.00 0.00 42 1005.2
20260906014522 81 180 4.3 6.1 0.00 0.00 0.00 39 1005.2
20260906013034 82 185 3.5 6.1 0.00 0.00 0.00 37 1005.4
20260906011520 83 169 3.5 6.1 0.00 0.00 0.00 36 1005.4
20260906010019 83 188 3.5 7.8 0.00 0.00 0.00 35 1005.5
20260906004518 85 172 11.3 17.4 0.00 0.00 0.00 33 1005.8
20260906003022 86 196 4.3 10.4 0.00 0.00 0.00 32 1005.7
20260906001517 87 188 4.3 9.6 0.00 0.00 0.00 32 1005.7
20260906000017 87 198 1.7 6.1 0.00 0.00 0.00 32 1005.4
20260905234515 87 205 3.5 7.8 0.00 0.00 0.00 32 1005.3
20260905233019 89 199 4.3 8.7 0.00 0.00 0.00 28 1005.0
20260905231514 90 225 6.1 9.6 0.00 0.00 0.00 26 1004.7
20260905230014 88 205 3.5 7.8 0.00 0.00 0.00 28 1004.7
20260905224517 88 204 1.7 8.7 0.00 0.00 0.00 31 1004.9
20260905223013 89 200 5.2 10.4 0.00 0.00 0.00 29 1004.7
20260905221513 89 221 3.5 7.0 0.00 0.00 0.00 29 1004.6
20260905220011 89 134 2.6 9.6 0.00 0.00 0.00 27 1004.7
20260905214510 90 143 2.6 7.0 0.00 0.00 0.00 29 1004.7
20260905213009 90 103 4.3 8.7 0.00 0.00 0.00 27 1004.7